When you browse on this site, cookies collect data to enhance your experience and personalize the content and advertising you see.
Visit our Privacy Policy to learn more. By continuing to use the site, you agree to this use of cookies and data.
  • In Schweiz
  • Länderverzeichnis
  • Für 7 Tage
  • Wassertemperatur
  • Satellitenkarten
  • Wetterkarte
  • Widgets
  • user-avatar
    Anmelden

    Stündliche Wetter Lezhe

    Heute, 21 März, Donnerstag

    Zeit Temperatur Niederschläge Wind Luftdruck Luftfeuchtigkeit
    00:00 +9°C° 0 mm 5 m/S 744 mmHg 61%
    01:00 +9°C° 0 mm 5 m/S 744 mmHg 61%
    02:00 +8°C° 0 mm 5 m/S 744 mmHg 62%
    03:00 +8°C° 0 mm 5 m/S 744 mmHg 63%
    04:00 +8°C° 0 mm 5 m/S 744 mmHg 63%
    05:00 +8°C° 0 mm 5 m/S 745 mmHg 63%
    06:00 +8°C° 0 mm 5 m/S 745 mmHg 62%
    07:00 +9°C° 0 mm 5 m/S 745 mmHg 61%
    08:00 +10°C° 0 mm 5 m/S 745 mmHg 57%
    09:00 +13°C° 0 mm 5 m/S 745 mmHg 52%
    10:00 +15°C° 0 mm 5 m/S 745 mmHg 48%
    11:00 +16°C° 0 mm 5 m/S 745 mmHg 46%
    12:00 +17°C° 0 mm 5 m/S 745 mmHg 44%
    13:00 +19°C° 0 mm 5 m/S 745 mmHg 42%
    14:00 +17°C° 0 mm 5 m/S 744 mmHg 43%
    15:00 +17°C° 0 mm 5 m/S 744 mmHg 44%
    16:00 +17°C° 0 mm 5 m/S 744 mmHg 45%
    17:00 +15°C° 0 mm 5 m/S 744 mmHg 49%
    18:00 +14°C° 0 mm 4 m/S 744 mmHg 54%
    19:00 +12°C° 0 mm 4 m/S 744 mmHg 58%
    20:00 +12°C° 0 mm 4 m/S 745 mmHg 60%
    21:00 +11°C° 0 mm 4 m/S 745 mmHg 61%
    22:00 +11°C° 0 mm 4 m/S 745 mmHg 63%
    23:00 +10°C° 0 mm 4 m/S 745 mmHg 65%

    Morgen, 22 März, Freitag

    Zeit Temperatur Niederschläge Wind Luftdruck Luftfeuchtigkeit
    00:00 +10°C° 0 mm 4 m/S 746 mmHg 66%
    01:00 +8°C° 0 mm 4 m/S 746 mmHg 67%
    02:00 +8°C° 0 mm 4 m/S 746 mmHg 68%
    03:00 +8°C° 0 mm 4 m/S 745 mmHg 69%
    04:00 +7°C° 0 mm 4 m/S 745 mmHg 69%
    05:00 +8°C° 0 mm 4 m/S 745 mmHg 68%
    06:00 +8°C° 0 mm 4 m/S 745 mmHg 67%
    07:00 +8°C° 0 mm 4 m/S 746 mmHg 66%
    08:00 +11°C° 0 mm 4 m/S 745 mmHg 59%
    09:00 +14°C° 0 mm 4 m/S 745 mmHg 52%
    10:00 +17°C° 0 mm 3 m/S 745 mmHg 45%
    11:00 +18°C° 0 mm 3 m/S 744 mmHg 42%
    12:00 +19°C° 0 mm 3 m/S 744 mmHg 39%
    13:00 +20°C° 0 mm 3 m/S 744 mmHg 36%
    14:00 +19°C° 0 mm 3 m/S 743 mmHg 37%
    15:00 +19°C° 0 mm 4 m/S 743 mmHg 37%
    16:00 +19°C° 0 mm 4 m/S 742 mmHg 38%
    17:00 +17°C° 0 mm 4 m/S 743 mmHg 43%
    18:00 +16°C° 0 mm 3 m/S 743 mmHg 48%
    19:00 +13°C° 0 mm 3 m/S 743 mmHg 53%
    20:00 +12°C° 0 mm 3 m/S 743 mmHg 53%
    21:00 +12°C° 0 mm 3 m/S 743 mmHg 54%
    22:00 +11°C° 0 mm 3 m/S 743 mmHg 55%
    23:00 +11°C° 0 mm 3 m/S 743 mmHg 56%

    übermorgen, 23 März, Samstag

    Zeit Temperatur Niederschläge Wind Luftdruck Luftfeuchtigkeit
    00:00 +10°C° 0 mm 3 m/S 743 mmHg 58%
    01:00 +10°C° 0 mm 3 m/S 743 mmHg 59%
    02:00 +10°C° 0 mm 3 m/S 743 mmHg 59%
    03:00 +9°C° 0 mm 3 m/S 743 mmHg 59%
    04:00 +9°C° 0 mm 3 m/S 743 mmHg 59%
    05:00 +10°C° 0 mm 3 m/S 742 mmHg 59%
    06:00 +10°C° 0 mm 3 m/S 742 mmHg 58%
    07:00 +10°C° 0 mm 3 m/S 742 mmHg 57%
    08:00 +12°C° 0 mm 3 m/S 742 mmHg 51%
    09:00 +16°C° 0 mm 3 m/S 742 mmHg 46%
    10:00 +18°C° 0 mm 3 m/S 742 mmHg 40%
    11:00 +19°C° 0 mm 3 m/S 742 mmHg 38%
    12:00 +20°C° 0 mm 3 m/S 741 mmHg 36%
    13:00 +20°C° 0 mm 3 m/S 741 mmHg 34%
    14:00 +20°C° 0 mm 3 m/S 741 mmHg 35%
    15:00 +20°C° 0 mm 4 m/S 741 mmHg 37%
    16:00 +20°C° 0 mm 4 m/S 740 mmHg 38%
    17:00 +18°C° 0 mm 3 m/S 741 mmHg 43%
    18:00 +16°C° 0 mm 3 m/S 741 mmHg 48%
    19:00 +14°C° 0 mm 3 m/S 741 mmHg 54%
    20:00 +13°C° 0 mm 3 m/S 741 mmHg 55%
    21:00 +13°C° 0 mm 3 m/S 742 mmHg 56%
    22:00 +12°C° 0 mm 3 m/S 742 mmHg 57%
    23:00 +12°C° 0 mm 3 m/S 742 mmHg 59%

    24 März, Sonntag

    Zeit Temperatur Niederschläge Wind Luftdruck Luftfeuchtigkeit
    00:00 +11°C° 0 mm 3 m/S 742 mmHg 60%
    01:00 +11°C° 0 mm 3 m/S 742 mmHg 62%
    02:00 +11°C° 0 mm 3 m/S 742 mmHg 63%
    03:00 +10°C° 0 mm 3 m/S 742 mmHg 64%
    04:00 +10°C° 0 mm 3 m/S 742 mmHg 65%
    05:00 +12°C° 0 mm 2 m/S 742 mmHg 64%
    06:00 +12°C° 0 mm 2 m/S 742 mmHg 63%
    07:00 +13°C° 0 mm 2 m/S 742 mmHg 62%
    08:00 +15°C° 0 mm 2 m/S 742 mmHg 55%
    09:00 +17°C° 0 mm 2 m/S 742 mmHg 48%
    10:00 +20°C° 0 mm 1 m/S 742 mmHg 42%
    11:00 +20°C° 0 mm 2 m/S 742 mmHg 39%
    12:00 +21°C° 0 mm 2 m/S 742 mmHg 37%
    13:00 +23°C° 0 mm 2 m/S 741 mmHg 35%
    14:00 +21°C° 0 mm 2 m/S 741 mmHg 38%
    15:00 +20°C° 0 mm 3 m/S 741 mmHg 41%
    16:00 +20°C° 0 mm 3 m/S 740 mmHg 43%
    17:00 +18°C° 0 mm 2 m/S 740 mmHg 51%
    18:00 +16°C° 0 mm 1 m/S 740 mmHg 59%
    19:00 +14°C° 0 mm 1 m/S 740 mmHg 66%
    20:00 +14°C° 0 mm 1 m/S 740 mmHg 66%
    21:00 +14°C° 0 mm 1 m/S 741 mmHg 67%
    22:00 +13°C° 0 mm 1 m/S 741 mmHg 67%
    23:00 +13°C° 0 mm 1 m/S 741 mmHg 68%

    25 März, Montag

    Zeit Temperatur Niederschläge Wind Luftdruck Luftfeuchtigkeit
    00:00 +13°C° 0 mm 1 m/S 740 mmHg 69%
    01:00 +12°C° 0 mm 1 m/S 740 mmHg 70%
    02:00 +12°C° 0 mm 1 m/S 740 mmHg 71%
    03:00 +12°C° 0 mm 1 m/S 740 mmHg 73%
    04:00 +11°C° 0 mm 1 m/S 740 mmHg 74%
    05:00 +12°C° 0 mm 1 m/S 740 mmHg 72%
    06:00 +13°C° 0 mm 1 m/S 740 mmHg 70%
    07:00 +13°C° 0 mm 1 m/S 740 mmHg 68%
    08:00 +15°C° 0 mm 1 m/S 739 mmHg 61%
    09:00 +18°C° 0 mm 1 m/S 739 mmHg 55%
    10:00 +19°C° 0 mm 1 m/S 739 mmHg 48%
    11:00 +19°C° 0 mm 2 m/S 738 mmHg 47%
    12:00 +19°C° 0 mm 2 m/S 738 mmHg 46%
    13:00 +19°C° 0 mm 3 m/S 738 mmHg 45%
    14:00 +19°C° 0 mm 3 m/S 737 mmHg 48%
    15:00 +18°C° 0 mm 2 m/S 737 mmHg 51%
    16:00 +18°C° 0 mm 2 m/S 736 mmHg 53%
    17:00 +16°C° 0 mm 2 m/S 736 mmHg 61%
    18:00 +14°C° 0 mm 1 m/S 736 mmHg 69%
    19:00 +12°C° 0 mm 0 m/S 736 mmHg 78%
    20:00 +11°C° 0 mm 0 m/S 736 mmHg 78%
    21:00 +11°C° 0 mm 0 m/S 736 mmHg 79%
    22:00 +11°C° 0 mm 0 m/S 736 mmHg 80%
    23:00 +11°C° 0 mm 1 m/S 736 mmHg 79%

    26 März, Dienstag

    Zeit Temperatur Niederschläge Wind Luftdruck Luftfeuchtigkeit
    00:00 +11°C° 0 mm 1 m/S 736 mmHg 77%
    01:00 +11°C° 0 mm 1 m/S 736 mmHg 76%
    02:00 +11°C° 0 mm 1 m/S 736 mmHg 76%
    03:00 +10°C° 0 mm 1 m/S 735 mmHg 75%
    04:00 +10°C° 0 mm 1 m/S 735 mmHg 75%
    05:00 +11°C° 0 mm 1 m/S 735 mmHg 72%
    06:00 +11°C° 0 mm 1 m/S 736 mmHg 70%
    07:00 +12°C° 0 mm 1 m/S 736 mmHg 67%
    08:00 +14°C° 0 mm 1 m/S 736 mmHg 61%
    09:00 +15°C° 0 mm 1 m/S 736 mmHg 55%
    10:00 +18°C° 0 mm 1 m/S 736 mmHg 49%
    11:00 +17°C° 0 mm 2 m/S 736 mmHg 48%
    12:00 +17°C° 0 mm 2 m/S 736 mmHg 47%
    13:00 +18°C° 0 mm 2 m/S 735 mmHg 45%
    14:00 +17°C° 0 mm 2 m/S 735 mmHg 47%
    15:00 +17°C° 0 mm 2 m/S 735 mmHg 48%
    16:00 +17°C° 0 mm 2 m/S 735 mmHg 50%
    17:00 +15°C° 0.2 mm 2 m/S 735 mmHg 55%
    18:00 +14°C° 0.2 mm 2 m/S 736 mmHg 61%
    19:00 +13°C° 0.2 mm 2 m/S 736 mmHg 66%
    20:00 +11°C° 0.3 mm 3 m/S 736 mmHg 66%
    21:00 +10°C° 0.3 mm 4 m/S 737 mmHg 66%
    22:00 +7°C° 0.3 mm 6 m/S 737 mmHg 66%
    23:00 +7°C° 0.1 mm 6 m/S 738 mmHg 66%
    Mehr zeigen